Pine Bluffs, WY

6:46 AM MST on February 12, 2016 (GMT -0700)
Pine Bluffs Muni, Pine Bluffs

Weather History for K82V - December, 2013

Change the Weather History Date:

Tuesday, December 10, 2013

  Actual Average (KCYS) Record (KCYS)
Temperature  
Mean Temperature 24 °F 27 °F  
Max Temperature 33 °F 38 °F 66 °F (1990)
Min Temperature 15 °F 17 °F -18 °F (1972)
Degree Days  
Heating Degree Days 41 38  
Month to date heating degree days 368  
Since 1 July heating degree days 2116  
Cooling Degree Days 0 0  
Month to date cooling degree days 0  
Year to date cooling degree days 348  
Moisture  
Dew Point 12 °F    
Average Humidity 61    
Maximum Humidity 93    
Minimum Humidity 40    
Precipitation  
Precipitation 0.00 in 0.02 in 0.33 in (1917)
Month to date precipitation 0.18  
Year to date precipitation 15.63  
Snow  
Snow 0.00 in 0.30 in 9.30 in (1919)
Month to date snowfall 2.9  
Since 1 July snowfall 17.2  
Snow Depth -    
Sea Level Pressure  
Sea Level Pressure 30.03 in    
Wind  
Wind Speed 14 mph (WNW)    
Max Wind Speed 29 mph    
Max Gust Speed 38 mph    
Visibility 10 miles    
Events Snow    
T = Trace of Precipitation, MM = Missing Value Source: NWS Daily Summary

Daily Weather History Graph

Daily Weather History Graph

Search for Another Location

Airport or City:

Trip Planner

Search our weather history database for the weather conditions in past years. The results will help you decide how hot, cold, wet, or windy it might be!

Date:

Astronomy

Dec. 10, 2013 Rise Set
Actual Time 7:11 AM MST 4:27 PM MST
Civil Twilight 6:40 AM MST 4:58 PM MST
Nautical Twilight 6:05 AM MST 5:33 PM MST
Astronomical Twilight 5:32 AM MST 6:06 PM MST
Moon 12:33 PM MST (12/10) 12:28 AM MST (12/10)
Length of Visible Light 10h 18m
Length of Day
9h 16m
Waxing Gibbous, 62% of the Moon is Illuminated
Dec 10
Waxing Gibbous
Dec 17
Full
Dec 25
Last Quarter
Jan 1
New
Jan 7
First Quarter

Hourly Weather History & Observations

Time (MST) Temp. Windchill Dew Point Humidity Pressure Visibility Wind Dir Wind Speed Gust Speed Precip Events Conditions
12:15 AM 19.4 °F 4.5 °F 5.0 °F 54% 30.04 in 10.0 mi West 17.3 mph 25.3 mph N/A   Clear
12:35 AM 19.4 °F 4.5 °F 6.8 °F 58% 30.04 in 10.0 mi West 17.3 mph 23.0 mph N/A   Clear
12:55 AM 19.4 °F 3.2 °F 6.8 °F 58% 30.04 in 10.0 mi West 20.7 mph 24.2 mph N/A   Clear
1:15 AM 19.4 °F 3.2 °F 6.8 °F 58% 30.03 in 10.0 mi West 20.7 mph 25.3 mph N/A   Clear
1:35 AM 19.4 °F 5.0 °F 5.0 °F 54% 30.04 in 10.0 mi West 16.1 mph 21.9 mph N/A   Clear
1:55 AM 19.4 °F 10.4 °F 5.0 °F 54% 30.05 in 10.0 mi NW 6.9 mph - N/A   Clear
2:15 AM 15.8 °F 8.6 °F 5.0 °F 62% 30.04 in 10.0 mi NW 4.6 mph - N/A   Clear
2:35 AM 21.2 °F 10.9 °F 5.0 °F 50% 30.03 in 10.0 mi NW 9.2 mph - N/A   Clear
2:55 AM 21.2 °F 6.8 °F 5.0 °F 50% 30.01 in 10.0 mi WNW 17.3 mph 21.9 mph N/A   Clear
3:15 AM 21.2 °F 8.9 °F 5.0 °F 50% 30.02 in 10.0 mi West 12.7 mph - N/A   Clear
3:35 AM 17.6 °F 5.7 °F 5.0 °F 58% 30.01 in 10.0 mi West 10.4 mph - N/A   Clear
3:55 AM 19.4 °F 8.6 °F 5.0 °F 54% 30.01 in 10.0 mi SSW 9.2 mph - N/A   Clear
4:15 AM 19.4 °F 10.4 °F 5.0 °F 54% 29.99 in 10.0 mi SSW 6.9 mph - N/A   Clear
4:35 AM 19.4 °F 7.9 °F 5.0 °F 54% 29.99 in 10.0 mi SW 10.4 mph - N/A   Clear
4:55 AM 17.6 °F 5.7 °F 5.0 °F 58% 29.99 in 10.0 mi SSW 10.4 mph - N/A   Clear
5:15 AM 19.4 °F 10.4 °F 5.0 °F 54% 29.98 in 10.0 mi SW 6.9 mph - N/A   Clear
5:35 AM 24.8 °F 12.9 °F 8.6 °F 50% 29.97 in 10.0 mi WSW 13.8 mph 19.6 mph N/A   Clear
5:55 AM 26.6 °F 11.1 °F 8.6 °F 47% 29.96 in 10.0 mi WSW 26.5 mph 31.1 mph N/A   Clear
6:15 AM 28.4 °F 14.4 °F 8.6 °F 43% 29.97 in 10.0 mi WSW 23.0 mph 38.0 mph N/A   Clear
6:35 AM 28.4 °F 14.4 °F 8.6 °F 43% 29.97 in 10.0 mi WSW 23.0 mph 33.4 mph N/A   Clear
6:55 AM 21.2 °F 14.9 °F 6.8 °F 54% 29.98 in 10.0 mi SSE 4.6 mph - N/A   Clear
7:15 AM 17.6 °F 10.7 °F 5.0 °F 58% 29.97 in 10.0 mi SSW 4.6 mph - N/A   Clear
7:35 AM 19.4 °F 14.3 °F 5.0 °F 54% 29.97 in 10.0 mi SSW 3.5 mph - N/A   Clear
7:55 AM 19.4 °F 8.6 °F 6.8 °F 58% 29.98 in 10.0 mi South 9.2 mph - N/A   Clear
8:15 AM 19.4 °F 11.5 °F 6.8 °F 58% 29.99 in 10.0 mi South 5.8 mph - N/A   Scattered Clouds
8:35 AM 19.4 °F 11.5 °F 6.8 °F 58% 29.98 in 10.0 mi SSW 5.8 mph - N/A   Mostly Cloudy
8:55 AM 19.4 °F 7.9 °F 6.8 °F 58% 29.97 in 10.0 mi SSW 10.4 mph - N/A   Scattered Clouds
9:15 AM 21.2 °F 14.9 °F 8.6 °F 58% 29.95 in 10.0 mi SW 4.6 mph - N/A   Clear
9:35 AM 30.2 °F 17.8 °F 8.6 °F 40% 29.95 in 10.0 mi West 19.6 mph 31.1 mph N/A   Clear
9:55 AM 32.0 °F 22.1 °F 12.2 °F 44% 29.94 in 10.0 mi West 13.8 mph 25.3 mph N/A   Clear
10:15 AM 32.0 °F 20.5 °F 14.0 °F 48% 29.95 in 10.0 mi West 18.4 mph 28.8 mph N/A   Clear
10:35 AM 33.8 °F 20.3 °F 14.0 °F 44% 29.94 in 10.0 mi West 28.8 mph 36.8 mph N/A   Scattered Clouds
10:55 AM 33.8 °F 22.5 °F 15.8 °F 48% 29.94 in 10.0 mi West 19.6 mph 32.2 mph N/A   Mostly Cloudy
11:15 AM 32.0 °F 23.6 °F 14.0 °F 48% 29.95 in 10.0 mi WNW 10.4 mph - N/A   Overcast
11:35 AM 32.0 °F 24.8 °F 14.0 °F 48% 29.95 in 10.0 mi NNW 8.1 mph 18.4 mph N/A   Overcast
11:55 AM 32.0 °F 24.2 °F 17.6 °F 55% 29.95 in 10.0 mi West 9.2 mph - N/A   Overcast
12:15 PM 32.0 °F 21.2 °F 17.6 °F 55% 29.95 in 10.0 mi WNW 16.1 mph 19.6 mph N/A   Overcast
12:35 PM 32.0 °F 19.5 °F 17.6 °F 55% 29.93 in 10.0 mi WNW 21.9 mph 27.6 mph N/A   Overcast
12:55 PM 32.0 °F 19.2 °F 19.4 °F 60% 29.92 in 10.0 mi WNW 23.0 mph 27.6 mph N/A   Overcast
1:15 PM 32.0 °F 19.5 °F 19.4 °F 60% 29.92 in 10.0 mi WNW 21.9 mph 31.1 mph N/A   Scattered Clouds
1:35 PM 32.0 °F 20.1 °F 19.4 °F 60% 29.93 in 10.0 mi NW 19.6 mph 27.6 mph N/A   Clear
1:55 PM 32.0 °F 21.6 °F 19.4 °F 60% 29.94 in 10.0 mi North 15.0 mph 21.9 mph N/A   Mostly Cloudy
2:15 PM 32.0 °F 23.0 °F 19.4 °F 60% 29.95 in 10.0 mi North 11.5 mph 18.4 mph N/A   Overcast
2:35 PM 32.0 °F 22.5 °F 19.4 °F 60% 29.95 in 10.0 mi NW 12.7 mph - N/A   Overcast
2:55 PM 32.0 °F 21.2 °F 19.4 °F 60% 29.96 in 10.0 mi NNW 16.1 mph 25.3 mph N/A   Overcast
3:15 PM 32.0 °F 19.5 °F 19.4 °F 60% 29.96 in 10.0 mi NW 21.9 mph 26.5 mph N/A   Mostly Cloudy
3:35 PM 32.0 °F 19.2 °F 19.4 °F 60% 29.97 in 10.0 mi NW 23.0 mph 28.8 mph N/A   Scattered Clouds
3:55 PM 30.2 °F 17.4 °F 19.4 °F 64% 29.98 in 10.0 mi NW 20.7 mph 26.5 mph N/A   Scattered Clouds
4:15 PM 30.2 °F 18.1 °F 19.4 °F 64% 30.01 in 10.0 mi NW 18.4 mph 27.6 mph N/A   Overcast
4:35 PM 30.2 °F 18.1 °F 17.6 °F 60% 30.00 in 10.0 mi NW 18.4 mph 27.6 mph N/A   Mostly Cloudy
4:55 PM 26.6 °F 15.7 °F 17.6 °F 69% 30.01 in 10.0 mi NNW 12.7 mph - N/A   Clear
5:15 PM 26.6 °F 12.7 °F 14.0 °F 59% 30.02 in 10.0 mi NW 20.7 mph - N/A   Scattered Clouds
5:35 PM 26.6 °F 12.7 °F 14.0 °F 59% 30.04 in 10.0 mi NNW 20.7 mph 27.6 mph N/A   Clear
5:55 PM 24.8 °F 10.7 °F 14.0 °F 64% 30.05 in 10.0 mi NNW 19.6 mph 26.5 mph N/A   Clear
6:15 PM 24.8 °F 9.3 °F 14.0 °F 64% 30.06 in 10.0 mi NNW 24.2 mph 32.2 mph N/A   Clear
6:35 PM 26.6 °F 11.4 °F 12.2 °F 55% 30.08 in 10.0 mi NW 25.3 mph 31.1 mph N/A   Clear
6:55 PM 24.8 °F 12.4 °F 12.2 °F 59% 30.09 in 10.0 mi NNW 15.0 mph 21.9 mph N/A   Clear
7:15 PM 23.0 °F 10.6 °F 12.2 °F 63% 30.10 in 10.0 mi NW 13.8 mph 20.7 mph N/A   Mostly Cloudy
7:35 PM 23.0 °F 11.1 °F 12.2 °F 63% 30.12 in 10.0 mi NW 12.7 mph - N/A   Overcast
7:55 PM 23.0 °F 11.7 °F 12.2 °F 63% 30.14 in 10.0 mi North 11.5 mph - N/A   Overcast
8:15 PM 23.0 °F 11.1 °F 15.8 °F 74% 30.16 in 10.0 mi NNE 12.7 mph - N/A   Overcast
8:35 PM 21.2 °F 10.9 °F 17.6 °F 86% 30.17 in 10.0 mi NNE 9.2 mph - N/A   Overcast
8:55 PM 21.2 °F 10.9 °F 17.6 °F 86% 30.18 in 10.0 mi North 9.2 mph - N/A   Mostly Cloudy
9:15 PM 19.4 °F 7.2 °F 17.6 °F 93% 30.17 in 10.0 mi North 11.5 mph - N/A   Mostly Cloudy
9:35 PM 19.4 °F 6.0 °F 17.6 °F 93% 30.18 in 7.0 mi North 13.8 mph - N/A Snow Light Snow
9:55 PM 19.4 °F 7.9 °F 17.6 °F 93% 30.19 in 10.0 mi North 10.4 mph - N/A Snow Light Snow
10:15 PM 19.4 °F 7.9 °F 15.8 °F 86% 30.19 in 10.0 mi North 10.4 mph - N/A   Scattered Clouds
10:35 PM 17.6 °F 10.7 °F 15.8 °F 93% 30.21 in 10.0 mi NNE 4.6 mph - N/A   Scattered Clouds
10:55 PM 17.6 °F 8.2 °F 14.0 °F 86% 30.22 in 10.0 mi NNE 6.9 mph - N/A   Overcast
11:15 PM 17.6 °F 5.7 °F 15.8 °F 93% 30.22 in 10.0 mi NNE 10.4 mph - N/A   Mostly Cloudy
11:35 PM 17.6 °F 7.3 °F 14.0 °F 86% 30.23 in 10.0 mi NNE 8.1 mph - N/A   Scattered Clouds
11:55 PM 17.6 °F 7.3 °F 14.0 °F 86% 30.23 in 10.0 mi NNE 8.1 mph - N/A   Clear